星链-3592 (STARLINK-3592 )

导读 | 星芒AI

STARLINK-3592 是 SpaceX Starlink 卫星互联网项目中的第 3592 颗卫星,属于低轨卫星通信网络的一部分。该卫星旨在为全球用户提供高速、低延迟的互联网服务,尤其关注网络覆盖不足的地区。它采用先进的推进和通信技术,具备自动避障能力,以确保在轨安全。作为 Starlink 计划的扩展,该卫星有助于提升全球互联网接入的普及率和稳定性。

基本信息
目录编号:
51801
目录名称:
STARLINK-3592
国际标识:
2022-017AK
轨道中心:
EARTH
卫星名称:
星链-3592
卫星全名:
星链-3592 (STARLINK-3592 )
卫星状态:
在轨 (已飞行1348 天)
发射日期:
2022-02-25 UTC
国别 :
美国 (US)
星等 :
--
轨道信息
数据来源 国际轨道数据
星历时间: 2025-11-03T07:15:15+0800
1天前
查看轨道信息
半长轴: 6917.929km
偏心率: 0.0001637
轨道倾角: 53.216°
近地点辐角 92.685°
升交点赤经 197.994°
平近点角 267.433°
近地点: 538.661km
远地点: 540.927km
周期: 95.439分钟
每日圈数: 15.088241
详细信息
固有亮度:
5
最大亮度:
2.5
卫星平台:
Starlink v1.5
覆盖范围:
全球
运营商:
太空探索技术公司
运营商所在国:
美国
制造商(研发单位):
太空探索技术公司
制造商所在国:
美国
使用方式:
暂无
卫星简介
星链(Starlink)计划是由太空探索技术公司(SpaceX)提出的一个巨型低轨卫星互联网星座项目,计划在2019年至2024年间在太空搭建由约1.2万颗卫星组成的“星链”网络,其中1584颗将部署在地球上空550千米处的近地轨道,并从2020年开始工作。该卫星仍在工作。
2D轨道图
3D轨道图
轨道高度分析图
轨道倾角分析图
轨道综合分析图
查看轨道综合分析图